Location: Great Malvern
(52.1167°N, 2.3167°W)
Time: 07:11:05
(UTC+00:00)

Okean 2 Rocket - Pass Details

Date: 18 September 2020
Orbit: 616 x 642 km, 82.5° (Epoch: 19 October)

Event Time Altitude Azimuth Distance (km) Brightness Sun altitude
Rises 19:41:29 0° 183° (S) 2,934 6.3 -13.6°
Reaches altitude 10° 19:43:44 10° 181° (S) 2,027 5.5 -13.9°
Maximum altitude 19:48:13 71° 98° (E) 676 3.0 -14.6°
Drops below altitude 10° 19:52:42 10° 14° (NNE) 2,029 5.8 -15.2°
Sets 19:54:56 0° 13° (NNE) 2,937 6.7 -15.5°
